Flag for Portugal Weather past 2 weeks in Lisbon, Portugal

Now
63 °F

Passing clouds.


Feels Like: 63 °F
Forecast: 54 / 67 °F
Wind: 17 mph from Northwest

Location: Lisbon Portela Airport


UV Index: 5 (Moderate)

Visibility: N/A


Pressure: 29.98 "Hg

Humidity: 83%

Dew point: 57 °F

Location of LisbonLocation

Historic Weather in Lisbon

°F

Lisbon temperature yesterday

Maximum temperature yesterday: 70 °F (at 4:30 PM)
Minimum temperature yesterday: 57 °F (at 10:00 PM)
Average temperature yesterday: 62 °F

Past Weeks' High & Low Weather Summary

 TemperatureHumidityPressure
High77 °F (Apr 8, 3:00 PM)100% (Apr 3, 6:30 AM)30.21 "Hg (Apr 3, 6:30 AM)
Low48 °F (Apr 3, 1:00 AM)44% (Apr 8, 2:30 PM)29.53 "Hg (Apr 2, 8:00 PM)
Average61 °F82%30.02 "Hg
* Reported Apr 2 8:00 PM — Apr 17 8:00 PM, Lisbon, Weather by CustomWeather, © 2014

Note: Actual official high and low records may vary slightly from our data, if they occured in-between our weather recording intervals... More about our weather records

Advertising

Historic Weather Conditions — Data for Previous 24 hours

 ConditionsComfort  
Time TempWeatherWind HumidityBarometerVisibility
8:00 PM
Apr 17
63 °FPassing clouds.17 mph83%29.98 "HgN/A
7:30 PM64 °FSunny.16 mph83%29.98 "Hg10 mi
7:00 PM66 °FSunny.15 mph78%29.98 "Hg10 mi
6:00 PM70 °FPassing clouds.12 mph73%29.98 "HgN/A
5:00 PM72 °FPassing clouds.12 mph69%30.01 "HgN/A
4:30 PM72 °FPassing clouds.12 mph73%30.01 "HgN/A
4:00 PM73 °FPassing clouds.12 mph69%30.01 "HgN/A
3:30 PM73 °FPassing clouds.10 mph69%30.01 "HgN/A
3:00 PM73 °FPassing clouds.9 mph69%30.01 "HgN/A
2:30 PM75 °FPassing clouds.7 mph61%30.01 "HgN/A
2:00 PM75 °FPassing clouds.3 mph61%30.01 "HgN/A
1:30 PM75 °FPassing clouds.3 mph57%30.04 "HgN/A
1:00 PM73 °FPassing clouds.3 mph65%30.04 "HgN/A
12:30 PM72 °FPassing clouds.3 mph69%30.04 "HgN/A
12:00 PM70 °FPassing clouds.5 mph73%30.07 "HgN/A
11:30 AM68 °FPassing clouds.5 mph73%30.07 "HgN/A
11:00 AM66 °FPassing clouds.6 mph78%30.07 "HgN/A
10:30 AM66 °FPassing clouds.6 mph78%30.07 "HgN/A
10:00 AM63 °FPassing clouds.7 mph83%30.07 "HgN/A
9:30 AM63 °FPassing clouds.6 mph83%30.07 "Hg6 mi
9:00 AM61 °FClear.8 mph88%30.07 "Hg5 mi
8:00 AM57 °FClear.8 mph94%30.04 "Hg5 mi
7:00 AM57 °FClear.7 mph94%30.04 "Hg4 mi
6:30 AM57 °FClear.7 mph88%30.04 "Hg6 mi
6:00 AM57 °FClear.6 mph94%30.04 "Hg6 mi
5:30 AM57 °FClear.7 mph94%30.04 "Hg6 mi
5:00 AM57 °FClear.7 mph88%30.04 "Hg10 mi
4:30 AM57 °FClear.13 mph94%30.07 "Hg10 mi
4:00 AM57 °FClear.9 mph94%30.07 "Hg10 mi
3:30 AM57 °FClear.9 mph94%30.07 "Hg10 mi
3:00 AM57 °FClear.8 mph88%30.07 "Hg10 mi
2:30 AM57 °FClear.7 mph94%30.09 "Hg10 mi
2:00 AM57 °FClear.8 mph94%30.09 "Hg10 mi
1:30 AM57 °FPassing clouds.8 mph88%30.09 "HgN/A
1:00 AM57 °FClear.9 mph88%30.09 "Hg10 mi
12:30 AM57 °FPassing clouds.8 mph88%30.09 "HgN/A
12:00 AM57 °FPassing clouds.9 mph88%30.12 "HgN/A
11:30 PM
Apr 16
57 °FPassing clouds.9 mph88%30.09 "HgN/A
11:00 PM57 °FPassing clouds.10 mph94%30.09 "HgN/A
10:30 PM57 °FPassing clouds.12 mph94%30.12 "HgN/A
10:00 PM57 °FPassing clouds.8 mph88%30.09 "HgN/A
9:30 PM59 °FPassing clouds.10 mph82%30.09 "HgN/A
9:00 PM59 °FPassing clouds.9 mph77%30.09 "HgN/A
Weather by CustomWeather, © 2014

See weather overview